Kaneohe MCBH, HI

10:23 PM HST on October 17, 2017 (GMT -1000)
Kaneohe Bay Marine Corps Air Facility

Weather History for PHNG - March, 2013

Change the Weather History Date:

Friday, March 1, 2013

  Actual Average Record
Temperature  
Mean Temperature 74 °F -  
Max Temperature 78 °F 75 °F 81 °F (2004)
Min Temperature 70 °F 67 °F 32 °F (2012)
Cooling Degree Days 9    
Growing Degree Days 24 (Base 50)    
Moisture  
Dew Point 59 °F    
Average Humidity 58    
Maximum Humidity 68    
Minimum Humidity 45    
Precipitation  
Precipitation 0.00 in - - ()
Sea Level Pressure  
Sea Level Pressure 30.15 in    
Wind  
Wind Speed 13 mph (ENE)    
Max Wind Speed 15 mph    
Max Gust Speed 28 mph    
Visibility 7 miles    
Events      
Averages and records for this station are not official NWS values.
T = Trace of Precipitation, MM = Missing Value Source: NWS Daily Summary

Daily Weather History Graph

Daily Weather History Graph

Search for Another Location

Airport or City:

Trip Planner

Search our weather history database for the weather conditions in past years. The results will help you decide how hot, cold, wet, or windy it might be!

Date:

Astronomy

Mar. 01, 2013 Rise Set
Actual Time 6:51 AM HST 6:35 PM HST
Civil Twilight 6:28 AM HST 6:57 PM HST
Nautical Twilight 6:03 AM HST 7:23 PM HST
Astronomical Twilight 5:37 AM HST 7:49 PM HST
Moon 10:39 PM HST (3/1) 9:23 AM HST (3/1)
Length of Visible Light 12h 28m
Length of Day
11h 44m
Waning Gibbous, 81% of the Moon is Illuminated
Mar 1
Waning Gibbous
Mar 4
Last Quarter
Mar 11
New
Mar 19
First Quarter
Mar 26
Full

Hourly Weather History & Observations

Time (HST) Temp. Dew Point Humidity Pressure Visibility Wind Dir Wind Speed Gust Speed Precip Events Conditions
12:57 AM 71.2 °F 60.1 °F 68% 30.20 in 7.0 mi ENE 15.0 mph 24.2 mph 0.00 in   Mostly Cloudy
1:57 AM 71.6 °F 60.1 °F 67% 30.18 in 7.0 mi ENE 10.4 mph 19.6 mph N/A   Scattered Clouds
2:57 AM 71.2 °F 57.9 °F 63% 30.16 in 7.0 mi ENE 12.7 mph 21.9 mph N/A   Mostly Cloudy
3:57 AM 71.2 °F 59.0 °F 65% 30.13 in 7.0 mi ENE 11.5 mph 23.0 mph N/A   Overcast
4:57 AM 71.1 °F 57.9 °F 63% 30.13 in 7.0 mi ENE 12.7 mph 23.0 mph N/A   Mostly Cloudy
5:57 AM 70.7 °F 57.9 °F 64% 30.13 in 7.0 mi ENE 11.5 mph 21.9 mph N/A   Scattered Clouds
6:57 AM 70.9 °F 55.0 °F 57% 30.14 in 7.0 mi ENE 13.8 mph 18.4 mph N/A   Clear
7:57 AM 72.7 °F 55.9 °F 56% 30.15 in 10.0 mi ENE 9.2 mph 21.9 mph N/A   Mostly Cloudy
8:57 AM 74.1 °F 57.9 °F 57% 30.17 in 10.0 mi ENE 11.5 mph 20.7 mph N/A   Overcast
9:57 AM 73.4 °F 59.0 °F 61% 30.19 in 7.0 mi ENE 13.8 mph 23.0 mph N/A   Partly Cloudy
10:57 AM 77.0 °F 60.1 °F 56% 30.19 in 7.0 mi ENE 13.8 mph 21.9 mph N/A   Scattered Clouds
11:57 AM 77.0 °F 60.1 °F 56% 30.18 in 7.0 mi ENE 12.7 mph 23.0 mph N/A   Scattered Clouds
12:57 PM 78.8 °F 60.1 °F 53% 30.16 in 7.0 mi ENE 13.8 mph 24.2 mph N/A   Partly Cloudy
1:57 PM 78.8 °F 60.1 °F 53% 30.14 in 7.0 mi ENE 12.7 mph 24.2 mph N/A   Partly Cloudy
2:57 PM 78.8 °F 55.9 °F 45% 30.12 in 7.0 mi ENE 13.8 mph 21.9 mph N/A   Partly Cloudy
3:57 PM 78.8 °F 59.0 °F 51% 30.11 in 7.0 mi ENE 15.0 mph 25.3 mph N/A   Partly Cloudy
4:57 PM 78.8 °F 60.1 °F 53% 30.11 in 7.0 mi ENE 11.5 mph 21.9 mph N/A   Clear
5:57 PM 78.8 °F 60.1 °F 53% 30.11 in 7.0 mi ENE 11.5 mph 23.0 mph 0.00 in   Scattered Clouds
6:57 PM 75.2 °F 60.1 °F 59% 30.12 in 7.0 mi East 15.0 mph 27.6 mph 0.00 in   Scattered Clouds
7:57 PM 73.4 °F 57.0 °F 56% 30.13 in 7.0 mi East 11.5 mph 20.7 mph N/A   Partly Cloudy
8:57 PM 73.4 °F 57.0 °F 56% 30.15 in 7.0 mi ENE 10.4 mph 20.7 mph N/A   Scattered Clouds
9:57 PM 73.4 °F 59.0 °F 61% 30.17 in 7.0 mi ENE 9.2 mph 19.6 mph N/A   Scattered Clouds
10:57 PM 73.4 °F 59.0 °F 61% 30.18 in 7.0 mi ENE 13.8 mph 23.0 mph N/A   Scattered Clouds
11:57 PM 71.6 °F 57.9 °F 62% 30.17 in 7.0 mi ENE 10.4 mph 20.7 mph N/A   Partly Cloudy